Time,TemperatureF,DewpointF,PressureIn,WindDirection,WindDirectionDegrees,WindSpeedMPH,WindSpeedGustMPH,Humidity,HourlyPrecipIn,Conditions,Clouds,dailyrainin,SolarRadiationWatts/m^2,SoftwareType,DateUTC
2013-04-22 00:03:00,67.0,66.0,-100.00,ENE,69,6.0,-999.0,97,0.00,,,-99.99,0.000000,,2013-04-22 04:03:00,
2013-04-22 00:12:00,67.0,66.0,-100.00,ENE,65,6.0,-999.0,97,0.00,,,-99.99,0.000000,,2013-04-22 04:12:00,
2013-04-22 00:23:00,67.0,66.0,-100.00,ENE,65,6.0,-999.0,97,0.00,,,-99.99,0.000000,,2013-04-22 04:23:00,
2013-04-22 00:33:00,67.0,67.0,-100.00,ENE,74,6.0,-999.0,97,0.00,,,-99.99,0.000000,,2013-04-22 04:33:00,
2013-04-22 00:43:00,67.0,67.0,-100.00,North,1,4.0,-999.0,98,0.00,,,-99.99,0.000000,,2013-04-22 04:43:00,
2013-04-22 00:53:00,67.0,67.0,-100.00,North,1,4.0,-999.0,98,0.00,,,-99.99,0.000000,,2013-04-22 04:53:00,
2013-04-22 01:02:00,67.0,67.0,-100.00,NNE,30,5.0,-999.0,98,0.00,,,-99.99,0.000000,,2013-04-22 05:02:00,
2013-04-22 01:12:00,67.0,67.0,-100.00,NNE,32,5.0,-999.0,98,0.00,,,-99.99,0.000000,,2013-04-22 05:12:00,
2013-04-22 01:22:00,67.0,67.0,-100.00,NNE,32,5.0,-999.0,98,0.00,,,-99.99,0.000000,,2013-04-22 05:22:00,
2013-04-22 01:32:00,67.0,67.0,-100.00,North,352,7.0,-999.0,98,0.00,,,-99.99,0.000000,,2013-04-22 05:32:00,
2013-04-22 01:42:00,67.0,67.0,-100.00,NE,50,6.0,-999.0,98,0.00,,,-99.99,0.000000,,2013-04-22 05:42:00,
2013-04-22 01:52:00,67.0,67.0,-100.00,NE,50,6.0,-999.0,98,0.00,,,-99.99,0.000000,,2013-04-22 05:52:00,
2013-04-22 02:02:00,67.0,67.0,-100.00,ENE,68,6.0,-999.0,98,0.03,,,-99.99,0.000000,,2013-04-22 06:02:00,
2013-04-22 02:12:00,67.0,67.0,-100.00,NNW,331,5.0,-999.0,98,0.00,,,-99.99,0.000000,,2013-04-22 06:12:00,
2013-04-22 02:21:00,67.0,67.0,-100.00,NNW,331,5.0,-999.0,98,0.00,,,-99.99,0.000000,,2013-04-22 06:21:00,
2013-04-22 02:32:00,67.0,67.0,-100.00,NNW,348,4.0,-999.0,98,0.00,,,-99.99,0.000000,,2013-04-22 06:32:00,
2013-04-22 02:42:00,67.0,67.0,-100.00,NNW,348,5.0,-999.0,98,0.00,,,-99.99,0.000000,,2013-04-22 06:42:00,
2013-04-22 02:52:00,67.0,67.0,-100.00,NNW,348,5.0,-999.0,98,0.00,,,-99.99,0.000000,,2013-04-22 06:52:00,
2013-04-22 03:01:00,67.0,67.0,-100.00,NNE,33,4.0,-999.0,98,0.00,,,-99.99,0.000000,,2013-04-22 07:01:00,
2013-04-22 03:12:00,67.0,67.0,-100.00,NNE,23,4.0,-999.0,98,0.03,,,-99.99,0.000000,,2013-04-22 07:12:00,
2013-04-22 03:21:00,67.0,67.0,-100.00,NNE,23,4.0,-999.0,98,0.03,,,-99.99,0.000000,,2013-04-22 07:21:00,
2013-04-22 03:32:00,67.0,67.0,-100.00,North,8,4.0,-999.0,99,0.00,,,-99.99,0.000000,,2013-04-22 07:32:00,
2013-04-22 03:42:00,67.0,67.0,-100.00,NNW,343,4.0,-999.0,99,0.00,,,-99.99,0.000000,,2013-04-22 07:42:00,
2013-04-22 03:52:00,67.0,67.0,-100.00,NNW,343,4.0,-999.0,99,0.00,,,-99.99,0.000000,,2013-04-22 07:52:00,
2013-04-22 04:02:00,67.0,67.0,-100.00,NNE,16,4.0,-999.0,99,0.00,,,-99.99,0.000000,,2013-04-22 08:02:00,
2013-04-22 04:11:00,67.0,67.0,-100.00,NNW,343,3.0,-999.0,99,0.00,,,-99.99,0.000000,,2013-04-22 08:11:00,
2013-04-22 04:22:00,67.0,67.0,-100.00,NNW,343,3.0,-999.0,99,0.00,,,-99.99,0.000000,,2013-04-22 08:22:00,
2013-04-22 04:32:00,67.0,66.0,-100.00,NNW,348,4.0,-999.0,99,0.00,,,-99.99,0.000000,,2013-04-22 08:32:00,
2013-04-22 04:42:00,67.0,66.0,-100.00,North,351,4.0,-999.0,99,0.00,,,-99.99,0.000000,,2013-04-22 08:42:00,
2013-04-22 04:53:00,67.0,66.0,-100.00,North,351,4.0,-999.0,99,0.00,,,-99.99,0.000000,,2013-04-22 08:53:00,
2013-04-22 05:01:00,67.0,66.0,-100.00,North,351,4.0,-999.0,99,0.00,,,-99.99,0.000000,,2013-04-22 09:01:00,
2013-04-22 05:11:00,66.0,66.0,-100.00,North,8,4.0,-999.0,99,0.00,,,-99.99,0.000000,,2013-04-22 09:11:00,
2013-04-22 05:21:00,66.0,66.0,-100.00,North,8,4.0,-999.0,99,0.00,,,-99.99,0.000000,,2013-04-22 09:21:00,
2013-04-22 05:33:00,66.0,66.0,-100.00,North,0,4.0,-999.0,99,0.00,,,-99.99,0.000000,,2013-04-22 09:33:00,
2013-04-22 05:42:00,66.0,66.0,-100.00,North,8,5.0,-999.0,99,0.00,,,-99.99,0.000000,,2013-04-22 09:42:00,
2013-04-22 05:52:00,66.0,66.0,-100.00,North,8,5.0,-999.0,99,0.00,,,-99.99,0.000000,,2013-04-22 09:52:00,
2013-04-22 06:03:00,66.0,66.0,-100.00,NNW,348,6.0,-999.0,99,0.00,,,-99.99,0.000000,,2013-04-22 10:03:00,
2013-04-22 06:12:00,66.0,66.0,-100.00,North,1,6.0,-999.0,99,0.00,,,-99.99,0.000000,,2013-04-22 10:12:00,
2013-04-22 06:22:00,66.0,66.0,-100.00,North,1,6.0,-999.0,99,0.00,,,-99.99,0.000000,,2013-04-22 10:22:00,
2013-04-22 06:32:00,66.0,66.0,-100.00,North,1,5.0,-999.0,99,0.00,,,-99.99,0.000000,,2013-04-22 10:32:00,
2013-04-22 06:42:00,66.0,66.0,-100.00,North,359,5.0,-999.0,99,0.00,,,-99.99,0.000000,,2013-04-22 10:42:00,
2013-04-22 06:52:00,66.0,66.0,-100.00,North,359,5.0,-999.0,99,0.00,,,-99.99,0.000000,,2013-04-22 10:52:00,
2013-04-22 07:02:00,66.0,66.0,-100.00,North,1,5.0,-999.0,99,0.00,,,-99.99,0.000000,,2013-04-22 11:02:00,
2013-04-22 07:12:00,66.0,65.0,-100.00,North,2,6.0,-999.0,99,0.00,,,-99.99,0.400000,,2013-04-22 11:12:00,
2013-04-22 07:22:00,66.0,65.0,-100.00,North,2,6.0,-999.0,99,0.00,,,-99.99,0.400000,,2013-04-22 11:22:00,
2013-04-22 07:32:00,65.0,65.0,-100.00,North,6,5.0,-999.0,99,0.00,,,-99.99,1.200000,,2013-04-22 11:32:00,
2013-04-22 07:42:00,65.0,65.0,-100.00,North,9,7.0,-999.0,99,0.00,,,-99.99,4.100000,,2013-04-22 11:42:00,
2013-04-22 07:52:00,65.0,65.0,-100.00,North,9,7.0,-999.0,99,0.00,,,-99.99,4.100000,,2013-04-22 11:52:00,
2013-04-22 08:02:00,66.0,65.0,-100.00,North,2,6.0,-999.0,99,0.00,,,-99.99,17.400000,,2013-04-22 12:02:00,
2013-04-22 08:12:00,66.0,66.0,-100.00,North,5,6.0,-999.0,99,0.00,,,-99.99,28.400000,,2013-04-22 12:12:00,
2013-04-22 08:21:00,66.0,66.0,-100.00,North,5,6.0,-999.0,99,0.00,,,-99.99,28.400000,,2013-04-22 12:21:00,
2013-04-22 08:32:00,66.0,66.0,-100.00,North,7,6.0,-999.0,99,0.00,,,-99.99,44.500000,,2013-04-22 12:32:00,
2013-04-22 08:42:00,66.0,66.0,-100.00,North,7,6.0,-999.0,99,0.00,,,-99.99,44.500000,,2013-04-22 12:42:00,
2013-04-22 08:52:00,66.0,66.0,-100.00,North,10,5.0,-999.0,99,0.00,,,-99.99,52.200001,,2013-04-22 12:52:00,
2013-04-22 09:01:00,66.0,66.0,-100.00,NNE,28,5.0,-999.0,99,0.00,,,-99.99,40.700001,,2013-04-22 13:01:00,
2013-04-22 09:11:00,66.0,66.0,-100.00,NNE,26,4.0,-999.0,99,0.00,,,-99.99,53.900002,,2013-04-22 13:11:00,
2013-04-22 09:22:00,66.0,66.0,-100.00,NNE,26,4.0,-999.0,99,0.00,,,-99.99,53.900002,,2013-04-22 13:22:00,
2013-04-22 09:32:00,66.0,66.0,-100.00,NNE,18,5.0,-999.0,99,0.00,,,-99.99,34.900002,,2013-04-22 13:32:00,
2013-04-22 09:42:00,66.0,66.0,-100.00,NNE,15,6.0,-999.0,99,0.00,,,-99.99,55.299999,,2013-04-22 13:42:00,
2013-04-22 09:53:00,66.0,66.0,-100.00,NNE,15,6.0,-999.0,99,0.00,,,-99.99,55.299999,,2013-04-22 13:53:00,
2013-04-22 10:02:00,67.0,67.0,-100.00,NNE,22,5.0,-999.0,99,0.00,,,-99.99,69.599998,,2013-04-22 14:02:00,
2013-04-22 10:11:00,67.0,67.0,-100.00,NNE,31,5.0,-999.0,99,0.00,,,-99.99,75.099998,,2013-04-22 14:11:00,
2013-04-22 10:21:00,67.0,67.0,-100.00,NNE,31,5.0,-999.0,99,0.00,,,-99.99,75.099998,,2013-04-22 14:21:00,
2013-04-22 10:33:00,67.0,67.0,-100.00,NNE,33,5.0,-999.0,99,0.00,,,-99.99,99.099998,,2013-04-22 14:33:00,
2013-04-22 10:42:00,67.0,67.0,-100.00,NNE,33,7.0,-999.0,99,0.00,,,-99.99,119.599998,,2013-04-22 14:42:00,
2013-04-22 10:52:00,67.0,67.0,-100.00,NNE,33,7.0,-999.0,99,0.00,,,-99.99,119.599998,,2013-04-22 14:52:00,
2013-04-22 11:02:00,67.0,67.0,-100.00,NE,37,7.0,-999.0,99,0.00,,,-99.99,109.900002,,2013-04-22 15:02:00,
2013-04-22 11:12:00,68.0,67.0,-100.00,NE,43,7.0,-999.0,99,0.00,,,-99.99,164.300003,,2013-04-22 15:12:00,
2013-04-22 11:22:00,68.0,67.0,-100.00,NE,43,7.0,-999.0,99,0.00,,,-99.99,164.300003,,2013-04-22 15:22:00,
2013-04-22 11:33:00,68.0,68.0,-100.00,NE,41,7.0,-999.0,98,0.00,,,-99.99,218.600006,,2013-04-22 15:33:00,
2013-04-22 11:43:00,69.0,68.0,-100.00,NE,51,9.0,-999.0,97,0.00,,,-99.99,227.600006,,2013-04-22 15:43:00,
2013-04-22 11:53:00,69.0,68.0,-100.00,NE,51,9.0,-999.0,97,0.00,,,-99.99,227.600006,,2013-04-22 15:53:00,
2013-04-22 12:03:00,69.0,68.0,-100.00,NNE,24,7.0,-999.0,97,0.00,,,-99.99,197.899994,,2013-04-22 16:03:00,
2013-04-22 12:12:00,69.0,68.0,-100.00,NNE,24,7.0,-999.0,96,0.00,,,-99.99,247.500000,,2013-04-22 16:12:00,
2013-04-22 12:23:00,69.0,68.0,-100.00,NNE,24,7.0,-999.0,96,0.00,,,-99.99,247.500000,,2013-04-22 16:23:00,
2013-04-22 12:33:00,70.0,68.0,-100.00,NE,38,8.0,-999.0,95,0.00,,,-99.99,229.899994,,2013-04-22 16:33:00,
2013-04-22 12:42:00,70.0,69.0,-100.00,North,10,7.0,-999.0,94,0.00,,,-99.99,243.000000,,2013-04-22 16:42:00,
2013-04-22 12:52:00,70.0,69.0,-100.00,North,10,7.0,-999.0,94,0.00,,,-99.99,243.000000,,2013-04-22 16:52:00,
2013-04-22 13:02:00,72.0,69.0,-100.00,NNE,30,6.0,-999.0,92,0.00,,,-99.99,425.600006,,2013-04-22 17:02:00,
2013-04-22 13:12:00,72.0,69.0,-100.00,NNE,18,7.0,-999.0,90,0.00,,,-99.99,346.700012,,2013-04-22 17:12:00,
2013-04-22 13:22:00,72.0,69.0,-100.00,NNE,18,7.0,-999.0,90,0.00,,,-99.99,346.700012,,2013-04-22 17:22:00,
2013-04-22 13:32:00,72.0,69.0,-100.00,NNE,30,7.0,-999.0,88,0.00,,,-99.99,436.399994,,2013-04-22 17:32:00,
2013-04-22 13:42:00,74.0,69.0,-100.00,NE,43,6.0,-999.0,86,0.00,,,-99.99,469.700012,,2013-04-22 17:42:00,
2013-04-22 13:52:00,74.0,69.0,-100.00,NE,43,6.0,-999.0,86,0.00,,,-99.99,469.700012,,2013-04-22 17:52:00,
2013-04-22 14:01:00,73.0,68.0,-100.00,NNE,19,7.0,-999.0,84,0.00,,,-99.99,269.700012,,2013-04-22 18:01:00,
2013-04-22 14:12:00,73.0,68.0,-100.00,NNE,26,8.0,-999.0,84,0.00,,,-99.99,416.899994,,2013-04-22 18:12:00,
2013-04-22 14:21:00,73.0,68.0,-100.00,NNE,26,8.0,-999.0,84,0.00,,,-99.99,416.899994,,2013-04-22 18:21:00,
2013-04-22 14:32:00,74.0,68.0,-100.00,NNE,31,8.0,-999.0,82,0.00,,,-99.99,459.100006,,2013-04-22 18:32:00,
2013-04-22 14:42:00,75.0,68.0,-100.00,NNE,29,8.0,-999.0,78,0.00,,,-99.99,542.400024,,2013-04-22 18:42:00,
2013-04-22 14:52:00,75.0,68.0,-100.00,NNE,29,8.0,-999.0,78,0.00,,,-99.99,542.400024,,2013-04-22 18:52:00,
2013-04-22 15:01:00,75.0,68.0,-100.00,North,3,9.0,-999.0,78,0.00,,,-99.99,449.299988,,2013-04-22 19:01:00,
2013-04-22 15:12:00,76.0,68.0,-100.00,NNE,23,8.0,-999.0,76,0.00,,,-99.99,579.900024,,2013-04-22 19:12:00,
2013-04-22 15:22:00,76.0,68.0,-100.00,NNE,23,8.0,-999.0,76,0.00,,,-99.99,579.900024,,2013-04-22 19:22:00,
2013-04-22 15:32:00,75.0,67.0,-100.00,North,9,10.0,-999.0,76,0.00,,,-99.99,264.299988,,2013-04-22 19:32:00,
2013-04-22 15:42:00,73.0,66.0,-100.00,NE,50,11.0,-999.0,78,0.00,,,-99.99,166.699997,,2013-04-22 19:42:00,
2013-04-22 15:53:00,73.0,66.0,-100.00,NE,50,11.0,-999.0,78,0.00,,,-99.99,166.699997,,2013-04-22 19:53:00,
2013-04-22 16:02:00,73.0,66.0,-100.00,NE,44,9.0,-999.0,79,0.00,,,-99.99,176.000000,,2013-04-22 20:02:00,
2013-04-22 16:11:00,73.0,66.0,-100.00,NNE,21,9.0,-999.0,79,0.00,,,-99.99,119.000000,,2013-04-22 20:11:00,
2013-04-22 16:22:00,73.0,66.0,-100.00,NNE,21,9.0,-999.0,79,0.00,,,-99.99,119.000000,,2013-04-22 20:22:00,
2013-04-22 16:32:00,71.0,65.0,-100.00,NNE,18,12.0,-999.0,82,0.00,,,-99.99,114.000000,,2013-04-22 20:32:00,
2013-04-22 16:42:00,69.0,65.0,-100.00,NNE,18,13.0,-999.0,86,0.00,,,-99.99,217.100006,,2013-04-22 20:42:00,
2013-04-22 16:52:00,69.0,65.0,-100.00,NNE,18,13.0,-999.0,86,0.00,,,-99.99,217.100006,,2013-04-22 20:52:00,
2013-04-22 17:02:00,70.0,66.0,-100.00,NNE,28,11.0,-999.0,86,0.00,,,-99.99,364.600006,,2013-04-22 21:02:00,
2013-04-22 17:12:00,71.0,66.0,-100.00,NNE,25,10.0,-999.0,84,0.00,,,-99.99,436.299988,,2013-04-22 21:12:00,
2013-04-22 17:21:00,71.0,66.0,-100.00,NNE,25,10.0,-999.0,84,0.00,,,-99.99,436.299988,,2013-04-22 21:21:00,
2013-04-22 17:32:00,69.0,64.0,-100.00,NNE,32,10.0,-999.0,84,0.00,,,-99.99,183.899994,,2013-04-22 21:32:00,
2013-04-22 17:43:00,68.0,64.0,-100.00,NE,34,11.0,-999.0,85,0.00,,,-99.99,129.699997,,2013-04-22 21:43:00,
2013-04-22 17:53:00,68.0,64.0,-100.00,NE,34,11.0,-999.0,85,0.00,,,-99.99,129.699997,,2013-04-22 21:53:00,
2013-04-22 18:03:00,68.0,63.0,-100.00,NNE,33,10.0,-999.0,86,0.00,,,-99.99,109.500000,,2013-04-22 22:03:00,
2013-04-22 18:12:00,67.0,63.0,-100.00,NE,35,9.0,-999.0,86,0.00,,,-99.99,91.699997,,2013-04-22 22:12:00,
2013-04-22 18:22:00,67.0,63.0,-100.00,NE,35,9.0,-999.0,86,0.00,,,-99.99,91.699997,,2013-04-22 22:22:00,
2013-04-22 18:33:00,66.0,63.0,-100.00,NE,43,11.0,-999.0,87,0.00,,,-99.99,42.200001,,2013-04-22 22:33:00,
2013-04-22 18:42:00,66.0,62.0,-100.00,NE,46,9.0,-999.0,88,0.00,,,-99.99,31.000000,,2013-04-22 22:42:00,
2013-04-22 18:52:00,66.0,62.0,-100.00,NE,46,9.0,-999.0,88,0.00,,,-99.99,31.000000,,2013-04-22 22:52:00,
2013-04-22 19:02:00,65.0,62.0,-100.00,NE,34,9.0,-999.0,89,0.00,,,-99.99,25.299999,,2013-04-22 23:02:00,
2013-04-22 19:11:00,65.0,62.0,-100.00,NNE,32,9.0,-999.0,90,0.00,,,-99.99,21.299999,,2013-04-22 23:11:00,
2013-04-22 19:21:00,65.0,62.0,-100.00,NNE,32,9.0,-999.0,90,0.00,,,-99.99,21.299999,,2013-04-22 23:21:00,
2013-04-22 19:33:00,65.0,62.0,-100.00,NE,38,9.0,-999.0,90,0.00,,,-99.99,18.700001,,2013-04-22 23:33:00,
2013-04-22 19:42:00,64.0,62.0,-100.00,NNE,30,8.0,-999.0,91,0.00,,,-99.99,8.800000,,2013-04-22 23:42:00,
2013-04-22 19:52:00,64.0,62.0,-100.00,NNE,30,8.0,-999.0,91,0.00,,,-99.99,8.800000,,2013-04-22 23:52:00,
2013-04-22 20:02:00,64.0,61.0,-100.00,NNE,23,8.0,-999.0,91,0.00,,,-99.99,4.600000,,2013-04-23 00:02:00,
2013-04-22 20:12:00,64.0,62.0,-100.00,NNE,31,7.0,-999.0,91,0.00,,,-99.99,1.800000,,2013-04-23 00:12:00,
2013-04-22 20:21:00,64.0,62.0,-100.00,NNE,31,7.0,-999.0,91,0.00,,,-99.99,1.800000,,2013-04-23 00:21:00,
2013-04-22 20:32:00,64.0,61.0,-100.00,NE,37,8.0,-999.0,91,0.00,,,-99.99,0.200000,,2013-04-23 00:32:00,
2013-04-22 20:42:00,64.0,61.0,-100.00,NNE,32,7.0,-999.0,91,0.00,,,-99.99,0.000000,,2013-04-23 00:42:00,
2013-04-22 20:52:00,64.0,61.0,-100.00,NNE,32,7.0,-999.0,91,0.00,,,-99.99,0.000000,,2013-04-23 00:52:00,
2013-04-22 21:01:00,64.0,61.0,-100.00,NE,35,9.0,-999.0,92,0.00,,,-99.99,0.000000,,2013-04-23 01:01:00,
2013-04-22 21:11:00,63.0,61.0,-100.00,NNE,26,8.0,-999.0,92,0.00,,,-99.99,0.000000,,2013-04-23 01:11:00,
2013-04-22 21:21:00,63.0,61.0,-100.00,NNE,26,8.0,-999.0,92,0.00,,,-99.99,0.000000,,2013-04-23 01:21:00,
2013-04-22 21:32:00,63.0,61.0,-100.00,NNE,29,8.0,-999.0,92,0.00,,,-99.99,0.000000,,2013-04-23 01:32:00,
2013-04-22 21:42:00,63.0,61.0,-100.00,NNE,29,8.0,-999.0,92,0.00,,,-99.99,0.000000,,2013-04-23 01:42:00,
2013-04-22 21:52:00,63.0,61.0,-100.00,NNE,24,7.0,-999.0,92,0.00,,,-99.99,0.000000,,2013-04-23 01:52:00,
2013-04-22 22:02:00,63.0,61.0,-100.00,NE,44,8.0,-999.0,93,0.00,,,-99.99,0.000000,,2013-04-23 02:02:00,
2013-04-22 22:12:00,63.0,61.0,-100.00,NE,46,7.0,-999.0,93,0.00,,,-99.99,0.000000,,2013-04-23 02:12:00,
2013-04-22 22:22:00,63.0,61.0,-100.00,NE,46,7.0,-999.0,93,0.00,,,-99.99,0.000000,,2013-04-23 02:22:00,
2013-04-22 22:32:00,63.0,61.0,-100.00,NE,39,5.0,-999.0,92,0.00,,,-99.99,0.000000,,2013-04-23 02:32:00,
2013-04-22 22:42:00,63.0,61.0,-100.00,NE,45,6.0,-999.0,92,0.00,,,-99.99,0.000000,,2013-04-23 02:42:00,
2013-04-22 22:52:00,63.0,61.0,-100.00,NE,45,6.0,-999.0,92,0.00,,,-99.99,0.000000,,2013-04-23 02:52:00,
2013-04-22 23:01:00,64.0,61.0,-100.00,NE,43,8.0,-999.0,92,0.00,,,-99.99,0.000000,,2013-04-23 03:01:00,
2013-04-22 23:11:00,64.0,61.0,-100.00,NE,48,7.0,-999.0,92,0.00,,,-99.99,0.000000,,2013-04-23 03:11:00,
2013-04-22 23:21:00,64.0,61.0,-100.00,NE,48,7.0,-999.0,92,0.00,,,-99.99,0.000000,,2013-04-23 03:21:00,
2013-04-22 23:33:00,64.0,62.0,-100.00,NE,41,7.0,-999.0,92,0.00,,,-99.99,0.000000,,2013-04-23 03:33:00,
2013-04-22 23:43:00,64.0,61.0,-100.00,NE,36,6.0,-999.0,91,0.00,,,-99.99,0.000000,,2013-04-23 03:43:00,
2013-04-22 23:53:00,64.0,61.0,-100.00,NE,36,6.0,-999.0,91,0.00,,,-99.99,0.000000,,2013-04-23 03:53:00,